Location: Berville
(49.1893°N, 2.0748°E)
Time: 19:13:58
(UTC+00:00)

FENGYUN 1C DEB - Pass Details

Date: 02 March 2024
Orbit: 768 x 960 km, 99.0° (Epoch: 13 April)

Event Time Altitude Azimuth Distance (km) Brightness Sun altitude
Exits shadow 21:43:43 35° 290° (WNW) 1,501 ? -38.4°
Drops below altitude 10° 21:48:02 10° 331° (NNW) 2,666 ? -38.9°
Sets 21:50:39 0° 340° (NNW) 3,593 ? -39.2°
